Previsão horária em Alife

Hoje, 22 Junho, Terça-feira

Tempo Temperatura Precipitação Vento Pressão Humidade
00:00 +25°C° 0 mm 1 m/s 739 mmHg 52%
01:00 +25°C° 0 mm 1 m/s 738 mmHg 51%
02:00 +25°C° 0 mm 1 m/s 738 mmHg 51%
03:00 +24°C° 0 mm 1 m/s 738 mmHg 52%
04:00 +24°C° 0 mm 1 m/s 738 mmHg 52%
05:00 +26°C° 0 mm 1 m/s 738 mmHg 49%
06:00 +28°C° 0 mm 1 m/s 739 mmHg 45%
07:00 +29°C° 0 mm 1 m/s 739 mmHg 42%
08:00 +31°C° 0 mm 1 m/s 739 mmHg 38%
09:00 +34°C° 0 mm 2 m/s 739 mmHg 33%
10:00 +36°C° 0 mm 2 m/s 739 mmHg 28%
11:00 +37°C° 0 mm 3 m/s 739 mmHg 26%
12:00 +38°C° 0 mm 3 m/s 739 mmHg 25%
13:00 +38°C° 0 mm 4 m/s 739 mmHg 25%
14:00 +38°C° 0 mm 4 m/s 739 mmHg 26%
15:00 +38°C° 0 mm 3 m/s 739 mmHg 27%
16:00 +37°C° 0 mm 3 m/s 739 mmHg 27%
17:00 +35°C° 0 mm 3 m/s 739 mmHg 33%
18:00 +32°C° 0 mm 2 m/s 739 mmHg 39%
19:00 +30°C° 0 mm 1 m/s 739 mmHg 45%
20:00 +29°C° 0 mm 1 m/s 739 mmHg 48%
21:00 +27°C° 0 mm 1 m/s 740 mmHg 50%
22:00 +26°C° 0 mm 1 m/s 740 mmHg 53%
23:00 +25°C° 0 mm 1 m/s 740 mmHg 54%

Amanhã, 23 Junho, Quarta-feira

Tempo Temperatura Precipitação Vento Pressão Humidade
00:00 +25°C° 0 mm 1 m/s 740 mmHg 54%
01:00 +24°C° 0 mm 1 m/s 740 mmHg 55%
02:00 +24°C° 0 mm 1 m/s 740 mmHg 55%
03:00 +24°C° 0 mm 1 m/s 740 mmHg 54%
04:00 +24°C° 0 mm 1 m/s 740 mmHg 54%
05:00 +25°C° 0 mm 1 m/s 740 mmHg 51%
06:00 +27°C° 0 mm 1 m/s 741 mmHg 47%
07:00 +29°C° 0 mm 1 m/s 741 mmHg 44%
08:00 +31°C° 0 mm 1 m/s 741 mmHg 40%
09:00 +33°C° 0 mm 1 m/s 741 mmHg 36%
10:00 +36°C° 0 mm 2 m/s 741 mmHg 31%
11:00 +37°C° 0 mm 2 m/s 741 mmHg 28%
12:00 +39°C° 0 mm 3 m/s 741 mmHg 25%
13:00 +40°C° 0 mm 3 m/s 741 mmHg 22%
14:00 +39°C° 0 mm 3 m/s 741 mmHg 25%
15:00 +38°C° 0 mm 4 m/s 742 mmHg 27%
16:00 +37°C° 0 mm 4 m/s 742 mmHg 30%
17:00 +35°C° 0 mm 3 m/s 742 mmHg 35%
18:00 +32°C° 0 mm 2 m/s 742 mmHg 41%
19:00 +31°C° 0 mm 2 m/s 742 mmHg 47%
20:00 +29°C° 0 mm 1 m/s 742 mmHg 48%
21:00 +28°C° 0 mm 1 m/s 743 mmHg 50%
22:00 +27°C° 0 mm 1 m/s 743 mmHg 51%
23:00 +27°C° 0 mm 1 m/s 743 mmHg 53%

Depois de amanhã, 24 Junho, Quinta-feira

Tempo Temperatura Precipitação Vento Pressão Humidade
00:00 +26°C° 0 mm 1 m/s 742 mmHg 54%
01:00 +26°C° 0 mm 2 m/s 742 mmHg 56%
02:00 +26°C° 0 mm 2 m/s 742 mmHg 54%
03:00 +26°C° 0 mm 2 m/s 743 mmHg 53%
04:00 +25°C° 0 mm 2 m/s 743 mmHg 51%
05:00 +26°C° 0 mm 2 m/s 743 mmHg 51%
06:00 +27°C° 0 mm 1 m/s 743 mmHg 50%
07:00 +28°C° 0 mm 1 m/s 744 mmHg 50%
08:00 +30°C° 0 mm 1 m/s 743 mmHg 43%
09:00 +33°C° 0 mm 1 m/s 743 mmHg 37%
10:00 +35°C° 0 mm 1 m/s 743 mmHg 30%
11:00 +36°C° 0 mm 3 m/s 743 mmHg 30%
12:00 +37°C° 0 mm 4 m/s 744 mmHg 30%
13:00 +37°C° 0 mm 5 m/s 744 mmHg 30%
14:00 +37°C° 0 mm 5 m/s 744 mmHg 31%
15:00 +36°C° 0 mm 4 m/s 744 mmHg 32%
16:00 +35°C° 0 mm 3 m/s 744 mmHg 34%
17:00 +34°C° 0 mm 2 m/s 743 mmHg 37%
18:00 +32°C° 0 mm 1 m/s 743 mmHg 41%
19:00 +30°C° 0 mm 1 m/s 743 mmHg 45%
20:00 +29°C° 0 mm 1 m/s 743 mmHg 47%
21:00 +28°C° 0 mm 1 m/s 743 mmHg 50%
22:00 +26°C° 0 mm 1 m/s 743 mmHg 52%
23:00 +26°C° 0 mm 1 m/s 743 mmHg 52%

25 Junho, Sexta-feira

Tempo Temperatura Precipitação Vento Pressão Humidade
00:00 +26°C° 0 mm 1 m/s 743 mmHg 53%
01:00 +26°C° 0 mm 1 m/s 743 mmHg 53%
02:00 +25°C° 0 mm 1 m/s 742 mmHg 54%
03:00 +25°C° 0 mm 1 m/s 742 mmHg 54%
04:00 +24°C° 0 mm 1 m/s 742 mmHg 54%
05:00 +26°C° 0 mm 1 m/s 742 mmHg 51%
06:00 +27°C° 0 mm 1 m/s 743 mmHg 48%
07:00 +29°C° 0 mm 1 m/s 743 mmHg 45%
08:00 +30°C° 0 mm 2 m/s 743 mmHg 41%
09:00 +32°C° 0 mm 2 m/s 743 mmHg 38%
10:00 +34°C° 0 mm 3 m/s 743 mmHg 34%
11:00 +35°C° 0 mm 3 m/s 743 mmHg 33%
12:00 +35°C° 0 mm 4 m/s 743 mmHg 32%
13:00 +36°C° 0 mm 4 m/s 742 mmHg 31%
14:00 +36°C° 0 mm 4 m/s 742 mmHg 32%
15:00 +35°C° 0 mm 5 m/s 742 mmHg 33%
16:00 +35°C° 0 mm 5 m/s 742 mmHg 34%
17:00 +33°C° 0 mm 4 m/s 742 mmHg 42%
18:00 +30°C° 0 mm 3 m/s 742 mmHg 49%
19:00 +27°C° 0 mm 2 m/s 742 mmHg 57%
20:00 +26°C° 0 mm 2 m/s 742 mmHg 63%
21:00 +24°C° 0 mm 2 m/s 742 mmHg 69%
22:00 +22°C° 0 mm 1 m/s 742 mmHg 75%
23:00 +22°C° 0 mm 1 m/s 742 mmHg 72%

26 Junho, Sábado

Tempo Temperatura Precipitação Vento Pressão Humidade
00:00 +22°C° 0 mm 1 m/s 742 mmHg 69%
01:00 +22°C° 0 mm 1 m/s 742 mmHg 66%
02:00 +21°C° 0 mm 1 m/s 741 mmHg 63%
03:00 +21°C° 0 mm 1 m/s 741 mmHg 59%
04:00 +21°C° 0 mm 1 m/s 741 mmHg 56%
05:00 +23°C° 0 mm 1 m/s 741 mmHg 50%
06:00 +25°C° 0 mm 1 m/s 742 mmHg 44%
07:00 +27°C° 0 mm 1 m/s 742 mmHg 38%
08:00 +29°C° 0 mm 1 m/s 742 mmHg 33%
09:00 +31°C° 0 mm 1 m/s 742 mmHg 28%
10:00 +34°C° 0 mm 2 m/s 742 mmHg 23%
11:00 +35°C° 0 mm 2 m/s 742 mmHg 22%
12:00 +35°C° 0 mm 3 m/s 741 mmHg 21%
13:00 +36°C° 0 mm 4 m/s 741 mmHg 20%
14:00 +35°C° 0 mm 4 m/s 741 mmHg 20%
15:00 +35°C° 0 mm 3 m/s 741 mmHg 20%
16:00 +34°C° 0 mm 3 m/s 741 mmHg 21%
17:00 +31°C° 0 mm 2 m/s 741 mmHg 27%
18:00 +29°C° 0 mm 2 m/s 741 mmHg 33%
19:00 +27°C° 0 mm 1 m/s 741 mmHg 39%
20:00 +25°C° 0 mm 1 m/s 741 mmHg 43%
21:00 +24°C° 0 mm 1 m/s 741 mmHg 48%
22:00 +22°C° 0 mm 1 m/s 741 mmHg 52%
23:00 +22°C° 0 mm 1 m/s 741 mmHg 53%

27 Junho, Domingo

Tempo Temperatura Precipitação Vento Pressão Humidade
00:00 +21°C° 0 mm 1 m/s 741 mmHg 53%
01:00 +21°C° 0 mm 1 m/s 741 mmHg 54%
02:00 +21°C° 0 mm 1 m/s 741 mmHg 54%
03:00 +20°C° 0 mm 1 m/s 741 mmHg 54%
04:00 +20°C° 0 mm 1 m/s 741 mmHg 54%
05:00 +22°C° 0 mm 1 m/s 741 mmHg 49%
06:00 +25°C° 0 mm 1 m/s 741 mmHg 43%
07:00 +27°C° 0 mm 1 m/s 741 mmHg 38%
08:00 +29°C° 0 mm 1 m/s 741 mmHg 33%
09:00 +31°C° 0 mm 1 m/s 741 mmHg 29%
10:00 +34°C° 0 mm 1 m/s 741 mmHg 24%
11:00 +35°C° 0 mm 2 m/s 741 mmHg 23%
12:00 +36°C° 0 mm 3 m/s 741 mmHg 22%
13:00 +37°C° 0 mm 4 m/s 741 mmHg 20%
14:00 +36°C° 0 mm 4 m/s 741 mmHg 23%
15:00 +35°C° 0 mm 4 m/s 741 mmHg 25%
16:00 +35°C° 0 mm 3 m/s 741 mmHg 27%
17:00 +33°C° 0 mm 3 m/s 741 mmHg 32%
18:00 +30°C° 0 mm 2 m/s 741 mmHg 38%
19:00 +28°C° 0 mm 1 m/s 741 mmHg 43%
20:00 +26°C° 0 mm 1 m/s 742 mmHg 47%
21:00 +25°C° 0 mm 1 m/s 742 mmHg 51%
22:00 +23°C° 0 mm 1 m/s 742 mmHg 54%
23:00 +23°C° 0 mm 1 m/s 742 mmHg 55%
Mostrar mais